Погода в Якутске

Погода в Якутске : погода сейчас, прогноз погоды и архив. Всё, что Вы хотите узнать о погоде в Якутске!

Хотите узнать прогноз погоды в Якутске? Тогда Вам сюда: Погода в Якутске

Поиск расширенной информации на нашем сайте:

Другие новости

Новости СМИ2

Главная страница сайта

Новости сайта

03.07.2017

Напоминаем, что на нашем специализированном сайте Метеоцентр.Азия вы можете получить высокодетализированные автоматические прогнозы погоды по пунктам России, СНГ и мира в авиационном формате (включающие направление и скорость ветра, видимость, явления погоды, количество и форму облачности, нижнюю и верхнюю границу облачности).


Погода в Якутске - сегодня

Время (UTC), дата Ветер
(°,м/с) 
Видим.   Явления Облачность Т
(°С)
Тd
(°С)
f(%) Тe
(°С)
Pmin
(гПа)
dP
(гПа)
Po
(мм)
O2
(г/м3)
Тmin Tmax R s Состояние
почвы
09 16.08.17 300 (СЗ) 20000 м  {ливн. осадки}  10/10 660 м кучево-дожд. 
[Cb cap]
+17.5 +14.5 83 +26  1015.4  1.1  753  282           
12 16.08.17 310 (СЗ) 20000 м  {ливн. осадки}  10/8 600 м кучево-дожд., средняя 
[Cb cap|Ac trans]
+17.1 +13.6 80 +24  1016  0.6  753  283    +23     
15 16.08.17 330 (СЗ) 20000 м    10/8 1350 м кучево-дожд., средняя 
[Cb cap|Ac trans]
+15.7 +11.7 77 +20  1016.3  0.2  753  285           
18 16.08.17 310 (СЗ) 20000 м    10/0 верхняя 
[Ci fib]
+11.1 +10.1 94 +13  1016.2  -0.3  753  290           
21 16.08.17 290 (З) 20000 м    8/0 средняя, верхняя 
[Ac trans|Ci fib]
+9.6 +8.5 93 +11  1016.4  0.2  753  292           
00 17.08.17 300 (СЗ) 20000 м    10/3 1000 м средняя, верхняя 
[Cu med, cong|Ac trans|Ci fib]
+15.1 +8.1 63 +15  1015.2  -1  752  286  +9.2        влажная 
03 17.08.17 270 (З) 20000 м    10/3 1000 м средняя, верхняя 
[Cu hum|Ac trans|Ci fib]
+17.4 +8.7 57 +18  1013.7  -1.4  751  283           
06 17.08.17 330 (СЗ) 20000 м  в посл. час дождь  10/6 1000 м средняя 
[Sc|Ac trans]
+15.7 +9.1 65 +16  1013.7  -0.1  751  285           
09 17.08.17 320 (СЗ) 20000 м    10/10 750 м 
[Sc]
+13.2 +9.5 78 +15  1013.7  -0.1  751  287           
12 17.08.17 320 (СЗ) 20000 м  {дождь}  10/6 600 м средняя, верхняя 
[Sc|Ac trans|Ci fib]
+11.2 +9.9 92 +12  1014.1  0.4  752  289    +17.6     
15 17.08.17 330 (СЗ) 20000 м    10/6 600 м средняя 
[Sc|Ac trans]
+10.6 +9 90 +12  1013.5  -0.6  751  290           
18 17.08.17 270 (З) 20000 м    6/3 1000 м средняя, верхняя 
[Sc|Ac trans|Ci fib]
+8.2 +7.4 95 +9  1013.4  -0.3  751  292           
21 17.08.17 280 (З) 20000 м    6/3 1000 м средняя, верхняя 
[Sc|Ac trans|Ci fib]
+8 +6.9 93 +9  1012.6  -0.8  750  293           
00 18.08.17 210 (ЮЗ) 20000 м    8/0 верхняя 
[Ci fib]
+14.3 +9.1 71 +15  1011.8  -0.5  750  286  +6.9        влажная 
03 18.08.17 270 (З) 20000 м    10/0 верхняя 
[Ci]
+18 +7.2 49 +19  1010.3  -1.3  749  282           
06 18.08.17 200 (Ю) 20000 м    10/5 1000 м кучево-дожд., средняя, верхняя 
[Cb cap|Ac trans|Ci fib]
+19.1 +9 52 +20  1009.4  -0.9  748  280           
09 18.08.17 290 (З) 20000 м  {ливн. осадки}  10/8 1000 м кучево-дожд., средняя, верхняя 
[Cb cap|Ac trans|Ci fib]
+17.1 +8.3 56 +18  1009.6  0.1  748  282           
12 18.08.17 тихо ()   20000 м  {ливн. осадки}  10/6 1000 м кучево-дожд., средняя, верхняя 
[Cb cap|Ac trans|Ci fib]
+14 +11 82 +17  1009  -0.7  748  285    +20.5  0.0     
15 18.08.17 240 (ЮЗ) 10 км  слаб. ливневой дождь  10/8 600 м кучево-дожд., средняя 
[Cb cap|Ac trans]
+12.7 +11.1 90 +17  1009.5  0.5  748  286           
18 18.08.17 210 (ЮЗ) 20000 м  слаб. дождь{ливн. осадки}  10/8 600 м кучево-дожд., средняя 
[Cb cap|Ac trans]
+11.7 +10.3 91 +15  1009.1  -0.5  748  287           
21 18.08.17 270 (З) 20000 м  {дождь}  10/5 600 м средняя, верхняя 
[Cu Sc|Ac trans|Ci fib]
+11.4 +10.3 93 +15  1008.9  -0.2  748  287           
00 19.08.17 250 (З) 20000 м  в посл. час ливневой дождь  10/5 600 м кучево-дожд., средняя, верхняя 
[Cb cap|Ac trans|Ci fib]
+15.1 +11.7 80 +20  1009  0.3  748  283  +11.4      влажная 
03 19.08.17 280 (З) 20000 м  в посл. час ливневой дождь  10/8 600 м кучево-дожд., средняя 
[Cb cap|Ac trans]
+16.4 +10 66 +18  1009.2  0.2  748  283           
06 19.08.17 280 (З) 20000 м  {ливн. осадки}  10/6 600 м кучево-дожд., средняя 
[Cb cap|Ac trans]
+18.1 +9.6 58 +20  1008.7  -0.4  748  281           
09 19.08.17 240 (ЮЗ) 20000 м    10/5 600 м кучево-дожд., средняя, верхняя 
[Cb cap|Ac trans|Ci fib]
+17.9 +11.6 67 +22  1009.1  0.4  748  281           
Время (UTC), дата Ветер
(°,м/с) 
Видим.   Явления Облачность Т
(°С)
Тd
(°С)
f(%) Тe
(°С)
Pmin
(гПа)
dP
(гПа)
Po
(мм)
O2
(г/м3)
Тmin Tmax R s Состояние
почвы

Для получения пояснительной информации подведите курсор к названию столбца.

ПОГОДА в Якутске - архив

Всё, что Вы хотите узнать о погоде в Якутске - удобно и подробно!

Выберите нужную дату (начиная с 1 января 2015* года) и нажмите кнопку "Найти".
Будут отображены архивные сводки погоды по пункту Якутск, начиная с указанной даты.


Отображать данные в формате CSV (для использования в таблицах Excel)


Внимание! Наш архив погоды предназначен исключительно для личного некоммерческого использования в познавательных целях. Если Вам необходимы официальные справки о состоянии погоды (для производственных, юридических, коммерческих и т.п. целей), обращайтесь в органы Росгидромета.

*Примечание: данная дата относится к архиву по метеостанциям СССР (Россия, СНГ, Балтия).
Архив по метеостанциям Зарубежной Европы и Азии (кроме Китая) хранится 10 дней, по другим регионам земного шара (Китай, Африка, Америка, Австралия, Океания) - 1 день.

Якутск - район местоположения метеостанции


Название, широта, долгота, высота метеостанции:
Якутск 62°ш. 129.7°д. 101 м над ур. моря [Российская Федерация]

Дополнительная информация

В oтличие oт бoльшинства пoгoдных сайтoв мы публикуем пoдрoбную метеoинфoрмацию в детальнoм прoфессиoнальнoм фoрмате.

Характеристики температуры и влажнoсти вoздуха измеряются на высoте 2 м в тени вдали oт зданий и деревьев.
Скoрoсть ветра измеряется на высoте 10 м (на урoвне рoста челoвека скoрoсть ветра ниже в 1.5-2 раза). Если метеoстанция нахoдится в гoрoде или в лесу, тo скoрoсть ветра занижена на 2-4 м/с пo сравнению с oткрытым местoм. Скoрoсть ветра над акватoриями крупных рек и oзёр, а также на вершинах хoлмoв на 2-5 м/с выше, чем в oбычных услoвиях.
Атмoсфернoе давление в разных тoчках местнoсти мoжет значительнo oтличаться oт давления на метеoстанции, в зависимoсти oт услoвий рельефа (при пoдъёме на 10 м давление пoнижается примернo на 1 мм рт.ст.).